STARLINK-31256, 59161

Orbit data source: Space-Track

STARLINK-31256, 59161 is a payload satellite owned by SpaceX/Seattle (US) in LEO that was launched on Mon, 04 Mar 2024 UTC via an FALCON 9 launch vehicle from the Air Force Eastern Test Range (AFETR). Payload-class satellites include a variety of spacecraft equipped with specific instruments for various scientific and technological missions. These include communications satellites like Starlink; space stations such as the ISS; scientific satellites like the Hubble; Earth observation satellites from companies like Planet Labs, Umbra, and HawkEye 360; GPS; miniature CubeSats for education and research; and military/defense satellites.

Loading next visibility...
Identifier
59161, 2024-044K
Orbit
LEO
Country
Flag of USUS
Related business
Manufacturer
SpaceX/Seattle
Mission
Operational Commercial Communications
Bus & Motor
STARLINK V2M, Unknown motor
Mass
730 kg wet, ~700 kg dry
Launch date (UTC)
2024-03-04 (2 years ago)
Launch vehicle
FALCON 9
Launch site
Air Force Eastern Test Range (AFETR)
Object type
Payload
Rocket body
Debris
Shape & HBR
Box + 2 Pan, 17.7 m
Radar Cross Section
33.884 m², Large (>1 m²)

Expand to show TLE details & history
Last TLE update: 2 days ago

TLE from 2 days ago
0 STARLINK-31256
1 59161U 24044K   26171.24520059  .00000313  00000-0  20903-4 0  9995
2 59161  42.9980 247.5388 0001576 275.8492  84.2180 15.27574754129281
Epoch: 2026-06-20T05:53Z
TLE epoch observation values (Epoch: 2026-06-20T05:53:05.330Z)
Latitude
-0.00004°
Longitude
-109.19604°
Altitude
482.731 km
Speed
7.626 km/s
True Right ascension
16h 30m 09s
True Declination
0° 00' 00"
Sunlit
Object was in full shadow at epoch
Visualization orbit readout
Latitude
Unknown
Longitude
Unknown
Altitude
Unknown
Speed
Unknown
Apparent Right ascension
Unknown
Apparent Declination
Unknown
Sunlit
N/A
Visualization observer readout
Local Sidereal Time
21:38:04
Azimuth
Unknown
Elevation
Unknown
Doppler factor
Unknown
Orbital elements
Apogee altitude
486.092 km
Perigee altitude
483.929 km
Semi-major axis
6,863.147 km
Eccentricity
0.00016
Inclination
42.998°
RAAN
247.5388°
Arg. of periapsis
275.8492°
True anomaly
84.23597°
Mean anomaly
84.218°
Eccentric anomaly
84.22698°
Mean motion
3.81732 °/min
Orbital period
94.31 mins
BSTAR
0.000020903
Loading maneuver chart data...
Computing Atmospheric mass density...
Loading historical data...
Loading historical data...
Loading historical data...
Loading historical data...
Loading historical data...
Loading historical data...
Loading historical data...

Documentation

Showing up to 5 results
|